{"data":{"norad_id":68525,"intl_designator":"2026-068T","name":"STARLINK-36311","alt_names":[],"object_type":"PAYLOAD","status":"ACTIVE","operator":null,"country":"US","launch_date":"2026-03-30","launch_site_code":"AFETR","launch_vehicle":null,"mission":null,"orbit_class":"UNKNOWN","rcs_meters":null,"size_class":null,"mass_kg":null,"dimensions":null,"purposes":["comms"],"wikipedia_slug":null,"has_3d_model":false,"image_url":null,"decayed_at":null,"tle_current":{"epoch":"2026-09-19T19:48:40.326336Z","epoch_age_seconds":106678,"freshness":"FRESH","line1":"1 68525U 26068T   26262.82546674  .00011856  00000+0  36150-3 0  9996","line2":"2 68525  53.1587 302.8705 0001560  85.4002 274.7179 15.34398543 26733","mean_motion":15.34398543,"eccentricity":0.000156,"inclination_deg":53.1587,"raan_deg":302.8705,"arg_perigee_deg":85.4002,"mean_anomaly_deg":274.7179,"bstar":0.0003615,"rev_number":2673,"period_min":93.847847195199,"perigee_km":461.64039896855,"apogee_km":463.77474247461,"semimajor_km":6840.8445707216,"source":"CELESTRAK","updated_at":"2026-09-20T09:00:43.905839Z"}}}